weather.gov     
National Weather Service

Regional Weather Roundup
NWS Homepage
This page is being discontinued on March 12, 2014.
The same data is available at this site. Please update your bookmarks.
Thank you, and we apologize for the inconvenience.
Please send an email to SR-SRH.Webmaster@noaa.gov with any concerns.


Current Version
Previous Version:    01  02  03  04  05  06  07  08  09  10  11  12  13  14  15  16  17  18  19  20  21  22  23  24  25  26  
[Printable]
690
ASUS41 KLWX 231410
RWRLWX

REGIONAL WEATHER ROUNDUP
NATIONAL WEATHER SERVICE BALTIMORE MD/WASHINGTON DC
1000 AM EDT THU OCT 23 2014

Note: "FAIR" indicates few or no clouds below 12,000 feet
with no significant weather and/or obstructions to visibility.
 TC=TEMPERATURE CELSIUS

 * =Non NWS site. Station does not report precipitation (e.g. rain,
    snow, etc.), thunder, or fog.

DCZ001-MDZ009-015-VAZ040>042-051-053>054-231500-
WASHINGTON METRO

CITY           SKY/WX    TMP DP  RH WIND       PRES   REMARKS
WASHINGTON NAT MOSUNNY   58  42  55 NW12G22   29.90F
DULLES         MOSUNNY   55  42  61 NW18G25   29.93R
ANDREWS AFB    CLOUDY    54  44  67 W17       29.88S
FT BELVOIR     PTSUNNY   56  43  61 NW18G28   29.91F
QUANTICO       MOSUNNY   58  43  57 N14G28    29.93S
COLLEGE PARK*  CLOUDY    55  45  67 NW14      29.88F
LEESBURG*      MOSUNNY   55  46  71 N23G29    29.94R
MANASSAS*      SUNNY     55  45  67 NW22      29.94S
GAITHERSBURG*  PTSUNNY   54  43  66 NW18G26   29.92F

$$

MDZ006>007-011-014-231500-
BALTIMORE METRO

CITY           SKY/WX    TMP DP  RH WIND       PRES   REMARKS
BWI AIRPORT    PTSUNNY   56  44  64 NW13G23   29.86S
MD SCIENCE CTR   N/A     57  43  59 MISG      29.87R
MARTIN STATE   PTSUNNY   57  46  67 NW17G26   29.86R
ANNAPOLIS      CLOUDY    56  44  64 NW10      29.86R
FORT MEADE*    CLOUDY    54  43  66 W10G22    29.89S

$$

MDZ012-015-019>023-231500-
MARYLAND EASTERN SHORE

CITY           SKY/WX    TMP DP  RH WIND       PRES   REMARKS
OCEAN CITY     CLOUDY    54  46  74 NW14G22   29.79R
SALISBURY      CLOUDY    57  45  64 NW9G20    29.82R
BAY BRIDGE AP*   N/A     55  45  67 NW15G24   29.85R
CAMBRIDGE*     CLOUDY    55  45  67 NW13G22   29.84S VSB<1/4
EASTON*        CLOUDY    57  48  72 NW12G18   29.87S

$$

MDZ017>025-231500-
SOUTHERN MARYLAND

CITY           SKY/WX    TMP DP  RH WIND       PRES   REMARKS
PATUXENT RIVER PTSUNNY   55  43  63 NW20G26   29.87S
ST INIGOES     CLOUDY    55  42  61 W14G24    29.88R
LEONARDTOWN*   CLOUDY    54  43  66 W12G18    29.89S

$$

MDZ003>005-231500-
NORTH CENTRAL MARYLAND

CITY           SKY/WX    TMP DP  RH WIND       PRES   REMARKS
FREDERICK*     PTSUNNY   61  45  55 NW10G17   29.94F
HAGERSTOWN APT CLOUDY    54  42  64 NW15      29.95R
WESTMINSTER*   CLOUDY    54  45  71 NW10G20   29.89R

$$

MDZ501>502-231500-
WESTERN MARYLAND

CITY           SKY/WX    TMP DP  RH WIND       PRES   REMARKS
OAKLAND*       CLOUDY    37 N/A N/A NW7       30.08S FOG
CUMBERLAND*    MOSUNNY   54  41  62 NW15G22   30.07F

$$

VAZ025>031-231500-
SHENANDOAH VALLEY

CITY           SKY/WX    TMP DP  RH WIND       PRES   REMARKS
WINCHESTER*    SUNNY     55  37  50 NW22G28   29.97F
FRONT ROYAL*   CLOUDY    54  43  66 NW8G16    29.99S
LURAY*         FAIR      54  43  66 NW5G18    30.00F
NEW MARKET*    FAIR      54  42  63 N9        30.03S
STAUNTON*      SUNNY     55  40  58 N15G21    30.04S
WAYNESBORO*    FAIR      53  41  64 NW9       30.01S

$$

WVZ021-048>050-054>055-231500-
EASTERN WEST VIRGINIA PANHANDLE

CITY           SKY/WX    TMP DP  RH WIND       PRES   REMARKS
MARTINSBURG    SUNNY     56  40  55 NW17G25   29.97R
PETERSBURG*    SUNNY     53  39  60 N9G16     30.08S

$$

VAZ036>039-050-231500-
CENTRAL FOOTHILLS

CITY           SKY/WX    TMP DP  RH WIND       PRES   REMARKS
CHARLOTTESVILL SUNNY     57  41  55 NW14G25   29.96F
CULPEPER*      PTSUNNY   59  45  58 N7G18     29.95S
ORANGE*        PTSUNNY   57  45  62 W14       29.97S
GORDONSVILLE*  CLOUDY    55  42  61 NW6       29.96S
WARRENTON*     FAIR      58  49  69 NW15G28   29.94S

$$

VAZ055>057-231500-
NORTH AND CENTRAL PIEDMONT

CITY           SKY/WX    TMP DP  RH WIND       PRES   REMARKS
FREDERICKSBRG* SUNNY     58  45  60 NW9G22    29.93S
STAFFORD*      MOSUNNY   56  42  59 NW21G29   29.97S

$$

NCZ024-NYZ072-PAZ021-071-VAZ022-071-231500-
OTHER REGIONAL OBSERVATIONS

CITY           SKY/WX    TMP DP  RH WIND       PRES   REMARKS
NEW YORK CITY  CLOUDY    50  47  89 N9        29.73S
PHILADELPHIA   CLOUDY    52  46  80 NW18G28   29.78S
PITTSBURGH     MOSUNNY   49  43  80 NW13      30.14S
ROANOKE        MOSUNNY   54  38  54 NW18G24   30.09F
RICHMOND       MOSUNNY   56  42  59 NW15      29.94S
RALEIGH        SUNNY     55  40  56 NW10G20   30.02S

$$

ANZ530>537-231500-
MARINE OBSERVATIONS

STATION/POSITION TIME  TEMP    WIND        PRES
                       AIR SEA DIR/SP/G
                 (UTC) (F)     (DEG/KT/KT) (MB)
THOMAS PT LIGHT  1400   55 62  310/ 17/ 21 1011.8R
BALT KEY BRIDGE  1400   56     310/ 20/ 23 1010.4F
COVE POINT       1400   54     320/ 17/ 22 1011.0R
LEWISETTA        1400   56 59  320/ 21/ 25 1011.9R
SOLOMONS ISLAND  1400      63                N/A
PINEY POINT      1400          330/ 25/ 29   N/A

$$





U.S. Dept. of Commerce
NOAA National Weather Service
1325 East West Highway
Silver Spring, MD 20910
E-mail: w-nws.webmaster@noaa.gov
Page last modified: May 16, 2007
NATIONAL WEATHER SERVICE: for Safety, for Work, for Fun - FOR LIFE